Location: East Newark
(40.7484°N, 74.1618°W)
Time: 08:10:20
(UTC+00:00)

Daily predictions for brighter satellites

Satellite Brightness Start Highest point End
(mag) Time Altitude Azimuth Time Altitude Azimuth Time Altitude Azimuth
Cosmos 1939 Rocket 3.4 22:25:36 10° SE 22:29:23 37° ENE 22:33:11 10° N
Cosmos 1943 3.5 22:29:09 10° NNW 22:34:49 75° WSW 22:40:26 10° SSE
Landsat 5 4.4 22:31:06 10° N 22:34:52 47° WNW 22:38:33 10° SSW
Cosmos 1626 4.0 22:33:18 10° SW 22:36:40 33° WNW 22:40:03 10° NNW
Hubble Space Telescope 3.3 22:37:51 10° SSW 22:39:47 13° S 22:41:42 10° SE
Cosmos 1315 Rocket 3.1 22:35:55 10° NNW 22:39:54 74° W 22:43:54 10° S
Cosmos 2058 Rocket 3.6 22:36:18 10° N 22:40:32 39° ENE 22:44:45 10° SSE
Meteor 1-24 Rocket 3.8 22:37:26 10° SSW 22:42:48 75° W 22:48:06 10° N
Cosmos 1844 4.3 22:38:30 10° S 22:43:37 37° ESE 22:48:49 10° NE
X-37B 0.6 22:40:36 10° WSW 22:43:47 73° SSE 22:46:37 13° ENE
CZ-4 R/B 2.6 22:41:12 10° ESE 22:44:20 21° ENE 22:47:25 10° NNE
Cosmos 773 Rocket 4.0 22:40:39 10° NNW 22:45:49 89° WSW 22:50:56 10° SSE
H-2A R/B 3.0 22:43:00 10° ESE 22:46:52 23° ENE 22:50:48 10° NNE
CZ-2C R/B 3.4 22:46:36 10° SE 22:51:35 45° ENE 22:56:52 10° N
Cosmos 1726 Rocket 3.5 22:48:26 10° N 22:52:49 87° E 22:57:13 10° S
Okean 1-7 Rocket 3.8 22:48:25 10° S 22:52:49 53° E 22:57:17 10° NNE
Nadezhda 4 Rocket 4.2 22:47:42 10° SSE 22:53:43 51° E 22:59:41 10° NNE
MOS 1 Rocket 3.3 22:52:34 10° NNE 22:56:43 47° E 23:00:51 10° S
Cosmos 1626 Rocket 4.3 22:54:22 10° SSE 22:58:12 30° E 23:02:04 10° NNE
COSMOS 2455 3.1 22:54:21 10° SW 23:00:22 73° WNW 23:06:25 10° NNE
Cosmos 1818 3.5 22:55:16 10° SSW 23:00:40 75° ESE 23:06:07 10° NE
Cosmos 1844 Rocket 2.7 22:56:00 10° S 23:01:36 67° ESE 23:07:14 10° NNE
Feng Yun 1-1 Rocket 4.1 22:56:31 10° SSE 23:01:53 71° ENE 23:07:24 10° N
CZ-4C R/B 4.5 23:00:04 10° WNW 23:03:02 14° NNW 23:06:16 10° N
Meteor 2-13 Rocket 4.5 22:57:26 10° S 23:03:22 58° E 23:09:23 10° NNE
CZ-2D R/B 3.2 23:00:57 10° SSE 23:04:45 61° ENE 23:08:33 10° N
ISS -3.3 23:05:46 10° WSW 23:09:04 55° NNW 23:11:14 19° NE
Cosmos 44 3.9 23:05:42 10° S 23:09:57 36° ESE 23:12:52 19° ENE
Aureole 2 Rocket 2.7 23:10:31 10° SSW 23:13:26 54° WNW 23:16:29 10° N
COSMO-SKYMED 1 2.6 23:09:20 10° N 23:13:41 81° WNW 23:18:01 10° SSW
Meteor 2-10 Rocket 3.6 23:08:40 10° N 23:14:10 90° WSW 23:19:25 10° S
Cosmos 2278 Rocket 3.9 23:11:24 10° SE 23:13:16 14° ESE 23:13:16 14° ESE
Meteor 1-21 Rocket 4.2 23:12:24 10° S 23:17:48 61° E 23:23:16 10° NNE
Cosmos 1937 Rocket 4.5 23:15:22 10° SSE 23:19:41 26° E 23:21:04 23° ENE
Cosmos 1538 Rocket 4.2 23:18:32 10° NNW 23:23:41 72° WSW 23:28:49 10° S
CSL-04 Rocket 4.2 23:20:43 10° SE 23:25:35 36° ENE 23:30:32 10° N
Cosmos 1689 Rocket 1.9 23:25:19 39° NE 23:26:07 60° E 23:28:56 10° S
Okean-O 2.6 23:23:34 10° SSE 23:27:54 59° ENE 23:32:17 10° N
Okean O Rocket 4.0 23:25:00 10° SSW 23:28:44 26° W 23:32:29 10° NW
Lacrosse 5 1.9 23:23:54 10° NW 23:28:54 58° NE 23:31:50 24° ESE
ATLAS 5 CENTAUR R/B 4.1 23:28:02 10° NW 23:29:46 12° NNW 23:31:34 10° N
Cosmos 2026 Rocket 4.2 23:24:48 10° SSE 23:30:32 45° E 23:36:22 10° NNE
Helios 1A Rocket 3.1 23:26:45 10° SE 23:30:42 46° ENE 23:34:41 10° N
Cosmos 1455 2.0 23:27:13 10° N 23:31:02 83° E 23:34:52 10° S
Cosmos 1340 3.0 23:28:56 10° SSE 23:32:27 40° E 23:32:34 40° E
Aureole 3 2.6 23:33:32 10° N 23:36:53 87° WSW 23:39:51 10° S
NOSS 2-1 (E) 3.1 23:34:08 10° SSW 23:37:25 47° ESE 23:37:25 47° ESE
Cosmos 1602 Rocket 3.4 23:34:26 10° S 23:38:41 63° E 23:41:52 18° NNE
Cosmos 1703 3.1 23:38:25 10° S 23:42:17 81° E 23:44:38 23° NNE
YAOGAN 1 2.4 23:38:03 10° SSE 23:42:21 83° ENE 23:46:42 10° N
CZ-4B R/B 3.8 23:39:53 10° NNW 23:42:36 23° WNW 23:45:15 10° SW
ERS-2 2.8 23:39:02 10° N 23:42:36 54° WNW 23:46:08 10° SSW
Meteor 2-1 Rocket 4.4 23:44:25 10° NNW 23:49:57 70° W 23:55:24 10° S
Meteor 2-8 Rocket 4.3 23:47:29 10° N 23:53:34 66° E 23:59:38 10° SSE
